This is the latest recevied weather packets stored in our database for station/object JE4YKI-13. If no packets are shown the sender has not sent any weather packets the latest 10 day(s).
| Time | Temp. | Humidity | Pressure | Rain* | Wind** | Luminosity | Snow |
|---|---|---|---|---|---|---|---|
| 1777689388 | 20.56° C | 58% | 1012.4 hPa | 0 mm | - | - | - |
| 1777688787 | 20.56° C | 59% | 1012.4 hPa | 0 mm | - | - | - |
| 1777688187 | 20.56° C | 59% | 1012.6 hPa | 0 mm | - | - | - |
| 1777687587 | 20.56° C | 60% | 1012.6 hPa | 0 mm | - | - | - |
| 1777686385 | 18.89° C | 65% | 1012.5 hPa | 0 mm | - | - | - |
| 1777685784 | 18.33° C | 65% | 1012.5 hPa | 0 mm | - | - | - |
| 1777685183 | 18.33° C | 67% | 1012.5 hPa | 0 mm | - | - | - |
| 1777684583 | 18.33° C | 68% | 1012.5 hPa | 0 mm | - | - | - |
| 1777683983 | 17.78° C | 68% | 1012.6 hPa | 0 mm | - | - | - |
| 1777683382 | 17.78° C | 69% | 1012.7 hPa | 0 mm | - | - | - |
| 1777682782 | 17.78° C | 70% | 1012.5 hPa | 0 mm | - | - | - |
| 1777682182 | 17.22° C | 71% | 1012.6 hPa | 0 mm | - | - | - |
| 1777681581 | 16.67° C | 72% | 1012.3 hPa | 0 mm | - | - | - |
| 1777680981 | 16.67° C | 72% | 1012.6 hPa | 0 mm | - | - | - |
| 1777680380 | 16.67° C | 72% | 1012.6 hPa | 0 mm | - | - | - |
| 1777679780 | 16.67° C | 72% | 1012.5 hPa | 0 mm | - | - | - |
| 1777679180 | 16.67° C | 72% | 1012.4 hPa | 0 mm | - | - | - |
| 1777678579 | 16.11° C | 72% | 1012.2 hPa | 0 mm | - | - | - |
| 1777677979 | 16.11° C | 74% | 1012.3 hPa | 0 mm | - | - | - |
| 1777677379 | 15.56° C | 76% | 1012.5 hPa | 0 mm | - | - | - |
| 1777676779 | 15° C | 77% | 1012.5 hPa | 0 mm | - | - | - |
| 1777676178 | 14.44° C | 77% | 1012.4 hPa | 0 mm | - | - | - |
| 1777675578 | 13.89° C | 79% | 1012.2 hPa | 0 mm | - | - | - |
| 1777674978 | 13.89° C | 79% | 1012.2 hPa | 0 mm | - | - | - |
| 1777674386 | 14.44° C | 77% | 1012.2 hPa | 0 mm | - | - | - |
* Rain latest hour (hover to see other rain measurements)
** Current wind speed in m/s (hover to see current wind gust speed)